Location: Newark
(58.8333°N, 23.5833°E)
Time: 11:40:29
(UTC+00:00)

METEOR M2 - Pass Details

Date: 09 December 2019
Orbit: 819 x 827 km, 98.5° (Epoch: 25 January)

Event Time Altitude Azimuth Distance (km) Brightness Sun altitude
Exits shadow 16:38:37 32° 29° (NNE) 1,391 ? -22.0°
Drops below altitude 10° 16:42:17 10° 352° (N) 2,433 ? -22.5°
Sets 16:44:48 0° 344° (NNW) 3,369 ? -22.8°
